Time,TemperatureF,DewpointF,PressureIn,WindDirection,WindDirectionDegrees,WindSpeedMPH,WindSpeedGustMPH,Humidity,HourlyPrecipIn,Conditions,Clouds,dailyrainin,SoftwareType,DateUTC
2013-08-12 00:09:00,80.1,77.0,30.06,South,190,0.0,5.0,91,0.00,,,0.00,weatherlink.com 1.10,2013-08-12 04:09:00,
2013-08-12 00:24:00,80.0,77.0,30.06,South,188,0.0,7.0,91,0.00,,,0.00,weatherlink.com 1.10,2013-08-12 04:24:00,
2013-08-12 00:39:00,79.8,77.0,30.06,SSW,193,2.0,6.0,91,0.00,,,0.00,weatherlink.com 1.10,2013-08-12 04:39:00,
2013-08-12 00:54:00,79.7,77.0,30.05,WSW,253,0.0,7.0,91,0.00,,,0.00,weatherlink.com 1.10,2013-08-12 04:54:00,
2013-08-12 01:09:00,79.6,77.0,30.05,South,186,0.0,6.0,91,0.00,,,0.00,weatherlink.com 1.10,2013-08-12 05:09:00,
2013-08-12 01:24:00,79.4,77.0,30.05,West,261,0.0,6.0,91,0.00,,,0.00,weatherlink.com 1.10,2013-08-12 05:24:00,
2013-08-12 01:39:00,79.3,77.0,30.04,SSW,208,0.0,6.0,91,0.00,,,0.00,weatherlink.com 1.10,2013-08-12 05:39:00,
2013-08-12 01:54:00,79.3,76.0,30.04,West,273,1.0,4.0,90,0.00,,,0.00,weatherlink.com 1.10,2013-08-12 05:54:00,
2013-08-12 02:09:00,79.2,76.0,30.04,WSW,253,1.0,3.0,90,0.00,,,0.00,weatherlink.com 1.10,2013-08-12 06:09:00,
2013-08-12 02:24:00,79.2,76.0,30.03,West,275,0.0,6.0,90,0.00,,,0.00,weatherlink.com 1.10,2013-08-12 06:24:00,
2013-08-12 02:39:00,79.1,76.0,30.02,West,275,0.0,2.0,90,0.00,,,0.00,weatherlink.com 1.10,2013-08-12 06:39:00,
2013-08-12 02:54:00,79.1,76.0,30.02,WNW,284,2.0,5.0,91,0.00,,,0.00,weatherlink.com 1.10,2013-08-12 06:54:00,
2013-08-12 03:09:00,79.0,76.0,30.02,WNW,300,0.0,4.0,90,0.00,,,0.00,weatherlink.com 1.10,2013-08-12 07:09:00,
2013-08-12 03:24:00,78.8,76.0,30.03,WNW,300,0.0,2.0,90,0.00,,,0.00,weatherlink.com 1.10,2013-08-12 07:24:00,
2013-08-12 03:39:00,78.7,76.0,30.03,WNW,299,0.0,4.0,90,0.00,,,0.00,weatherlink.com 1.10,2013-08-12 07:39:00,
2013-08-12 03:54:00,78.6,76.0,30.02,WNW,299,0.0,2.0,91,0.00,,,0.00,weatherlink.com 1.10,2013-08-12 07:54:00,
2013-08-12 04:09:00,78.4,76.0,30.02,WNW,299,0.0,2.0,91,0.00,,,0.00,weatherlink.com 1.10,2013-08-12 08:09:00,
2013-08-12 04:24:00,78.2,75.0,30.03,WNW,299,0.0,2.0,91,0.00,,,0.00,weatherlink.com 1.10,2013-08-12 08:24:00,
2013-08-12 04:39:00,78.1,75.0,30.02,WNW,299,2.0,3.0,91,0.00,,,0.00,weatherlink.com 1.10,2013-08-12 08:39:00,
2013-08-12 04:54:00,77.9,75.0,30.02,WNW,299,0.0,0.0,91,0.00,,,0.00,weatherlink.com 1.10,2013-08-12 08:54:00,
2013-08-12 05:09:00,77.8,75.0,30.01,WNW,299,0.0,4.0,91,0.00,,,0.00,weatherlink.com 1.10,2013-08-12 09:09:00,
2013-08-12 05:24:00,77.6,75.0,30.01,WNW,299,0.0,2.0,91,0.00,,,0.00,weatherlink.com 1.10,2013-08-12 09:24:00,
2013-08-12 05:39:00,77.7,75.0,30.01,WNW,285,0.0,5.0,91,0.00,,,0.00,weatherlink.com 1.10,2013-08-12 09:39:00,
2013-08-12 05:54:00,77.6,75.0,30.01,West,261,3.0,5.0,91,0.00,,,0.00,weatherlink.com 1.10,2013-08-12 09:54:00,
2013-08-12 06:09:00,77.7,75.0,30.01,West,279,2.0,4.0,91,0.00,,,0.00,weatherlink.com 1.10,2013-08-12 10:09:00,
2013-08-12 06:24:00,77.5,75.0,30.01,West,273,1.0,5.0,91,0.00,,,0.00,weatherlink.com 1.10,2013-08-12 10:24:00,
2013-08-12 06:39:00,77.3,75.0,30.01,West,273,0.0,3.0,91,0.00,,,0.00,weatherlink.com 1.10,2013-08-12 10:39:00,
2013-08-12 06:54:00,77.2,75.0,30.02,West,276,0.0,3.0,91,0.00,,,0.00,weatherlink.com 1.10,2013-08-12 10:54:00,
2013-08-12 07:09:00,77.4,75.0,30.02,West,276,2.0,5.0,91,0.01,,,0.01,weatherlink.com 1.10,2013-08-12 11:09:00,
2013-08-12 07:24:00,77.9,75.0,30.02,West,276,0.0,1.0,91,0.01,,,0.01,weatherlink.com 1.10,2013-08-12 11:24:00,
2013-08-12 07:39:00,78.2,75.0,30.02,West,270,0.0,4.0,91,0.01,,,0.01,weatherlink.com 1.10,2013-08-12 11:39:00,
2013-08-12 07:54:00,78.6,76.0,30.02,West,270,0.0,3.0,91,0.01,,,0.01,weatherlink.com 1.10,2013-08-12 11:54:00,
2013-08-12 08:09:00,79.0,76.0,30.02,WNW,288,0.0,7.0,91,0.00,,,0.01,weatherlink.com 1.10,2013-08-12 12:09:00,
2013-08-12 08:24:00,79.5,77.0,30.02,West,281,1.0,6.0,91,0.00,,,0.01,weatherlink.com 1.10,2013-08-12 12:24:00,
2013-08-12 08:39:00,80.4,77.0,30.02,West,281,0.0,5.0,90,0.00,,,0.01,weatherlink.com 1.10,2013-08-12 12:39:00,
2013-08-12 08:54:00,81.8,78.0,30.03,WNW,284,0.0,5.0,89,0.00,,,0.01,weatherlink.com 1.10,2013-08-12 12:54:00,
2013-08-12 09:09:00,83.6,79.0,30.02,WNW,284,0.0,4.0,87,0.00,,,0.01,weatherlink.com 1.10,2013-08-12 13:09:00,
2013-08-12 09:24:00,85.6,80.0,30.02,WNW,284,0.0,4.0,84,0.00,,,0.01,weatherlink.com 1.10,2013-08-12 13:24:00,
2013-08-12 09:39:00,87.2,80.0,30.02,WNW,295,3.0,3.0,80,0.00,,,0.01,weatherlink.com 1.10,2013-08-12 13:39:00,
2013-08-12 09:55:00,88.9,81.0,30.02,WNW,290,0.0,3.0,77,0.00,,,0.01,weatherlink.com 1.10,2013-08-12 13:55:00,
2013-08-12 10:10:00,89.7,80.0,30.02,WNW,284,0.0,7.0,74,0.00,,,0.01,weatherlink.com 1.10,2013-08-12 14:10:00,
2013-08-12 10:25:00,90.6,81.0,30.02,SSW,202,1.0,6.0,73,0.00,,,0.01,weatherlink.com 1.10,2013-08-12 14:25:00,
2013-08-12 10:40:00,90.8,82.0,30.02,SSW,213,0.0,6.0,75,0.00,,,0.01,weatherlink.com 1.10,2013-08-12 14:40:00,
2013-08-12 10:55:00,90.7,81.0,30.02,SSW,196,3.0,6.0,74,0.00,,,0.01,weatherlink.com 1.10,2013-08-12 14:55:00,
2013-08-12 11:10:00,91.1,81.0,30.02,South,169,0.0,7.0,73,0.00,,,0.01,weatherlink.com 1.10,2013-08-12 15:10:00,
2013-08-12 11:25:00,91.8,82.0,30.02,SSE,153,5.0,7.0,73,0.00,,,0.01,weatherlink.com 1.10,2013-08-12 15:25:00,
2013-08-12 11:40:00,91.9,82.0,30.02,SSW,198,5.0,9.0,73,0.00,,,0.01,weatherlink.com 1.10,2013-08-12 15:40:00,
2013-08-12 11:55:00,91.3,82.0,30.01,SW,218,3.0,9.0,73,0.00,,,0.01,weatherlink.com 1.10,2013-08-12 15:55:00,
2013-08-12 12:10:00,91.5,81.0,30.01,South,182,0.0,9.0,72,0.00,,,0.01,weatherlink.com 1.10,2013-08-12 16:10:00,
2013-08-12 12:25:00,91.4,81.0,30.01,SSW,199,3.0,10.0,72,0.00,,,0.01,weatherlink.com 1.10,2013-08-12 16:25:00,
2013-08-12 12:40:00,91.3,81.0,30.01,South,171,9.0,9.0,72,0.00,,,0.01,weatherlink.com 1.10,2013-08-12 16:40:00,
2013-08-12 12:55:00,90.2,81.0,30.00,SSW,205,3.0,9.0,75,0.00,,,0.01,weatherlink.com 1.10,2013-08-12 16:55:00,
2013-08-12 13:10:00,91.1,81.0,30.00,SW,234,5.0,14.0,72,0.00,,,0.01,weatherlink.com 1.10,2013-08-12 17:10:00,
2013-08-12 13:25:00,91.9,82.0,29.99,SW,216,5.0,10.0,73,0.00,,,0.01,weatherlink.com 1.10,2013-08-12 17:25:00,
2013-08-12 13:40:00,92.7,82.0,29.99,SSE,153,5.0,9.0,71,0.00,,,0.01,weatherlink.com 1.10,2013-08-12 17:40:00,
2013-08-12 13:55:00,92.8,83.0,29.99,SSW,198,2.0,8.0,72,0.00,,,0.01,weatherlink.com 1.10,2013-08-12 17:55:00,
2013-08-12 14:10:00,93.2,83.0,29.99,SSW,196,2.0,11.0,71,0.00,,,0.01,weatherlink.com 1.10,2013-08-12 18:10:00,
2013-08-12 14:40:00,92.6,82.0,29.98,SW,218,8.0,14.0,71,0.00,,,0.01,weatherlink.com 1.10,2013-08-12 18:40:00,
2013-08-12 14:55:00,92.1,82.0,29.98,South,186,3.0,11.0,72,0.00,,,0.01,weatherlink.com 1.10,2013-08-12 18:55:00,
2013-08-12 15:10:00,91.6,82.0,29.98,SSW,192,5.0,14.0,73,0.00,,,0.01,weatherlink.com 1.10,2013-08-12 19:10:00,
2013-08-12 15:25:00,91.7,82.0,29.97,SSW,192,0.0,10.0,73,0.00,,,0.01,weatherlink.com 1.10,2013-08-12 19:25:00,
2013-08-12 15:40:00,92.1,81.0,29.96,SW,230,0.0,11.0,71,0.00,,,0.01,weatherlink.com 1.10,2013-08-12 19:40:00,
2013-08-12 15:55:00,91.3,81.0,29.96,SSW,194,1.0,9.0,72,0.00,,,0.01,weatherlink.com 1.10,2013-08-12 19:55:00,
2013-08-12 16:10:00,88.5,80.0,29.96,South,175,0.0,8.0,77,0.00,,,0.01,weatherlink.com 1.10,2013-08-12 20:10:00,
2013-08-12 16:25:00,86.2,81.0,29.98,WSW,246,1.0,5.0,83,0.05,,,0.06,weatherlink.com 1.10,2013-08-12 20:25:00,
2013-08-12 16:40:00,82.7,78.0,29.98,WSW,242,0.0,10.0,85,0.08,,,0.09,weatherlink.com 1.10,2013-08-12 20:40:00,
2013-08-12 16:55:00,80.1,76.0,29.97,SW,225,3.0,8.0,87,0.11,,,0.12,weatherlink.com 1.10,2013-08-12 20:55:00,
2013-08-12 17:10:00,78.1,74.0,29.96,WSW,254,0.0,6.0,88,0.12,,,0.13,weatherlink.com 1.10,2013-08-12 21:10:00,
2013-08-12 17:25:00,76.8,73.0,29.96,SW,231,0.0,6.0,89,0.07,,,0.13,weatherlink.com 1.10,2013-08-12 21:25:00,
2013-08-12 17:40:00,76.3,73.0,29.96,SW,233,1.0,3.0,90,0.04,,,0.13,weatherlink.com 1.10,2013-08-12 21:40:00,
2013-08-12 17:55:00,76.5,74.0,29.96,West,268,1.0,3.0,90,0.01,,,0.13,weatherlink.com 1.10,2013-08-12 21:55:00,
2013-08-12 18:10:00,76.9,74.0,29.96,SW,217,1.0,5.0,90,0.00,,,0.13,weatherlink.com 1.10,2013-08-12 22:10:00,
2013-08-12 18:25:00,76.8,74.0,29.95,West,265,0.0,4.0,90,0.00,,,0.13,weatherlink.com 1.10,2013-08-12 22:25:00,
2013-08-12 18:40:00,76.4,73.0,29.96,West,271,0.0,1.0,90,0.00,,,0.13,weatherlink.com 1.10,2013-08-12 22:40:00,
2013-08-12 18:55:00,75.8,73.0,29.95,SW,225,3.0,6.0,90,0.00,,,0.13,weatherlink.com 1.10,2013-08-12 22:55:00,
2013-08-12 19:10:00,75.8,73.0,29.95,WSW,244,1.0,3.0,90,0.00,,,0.13,weatherlink.com 1.10,2013-08-12 23:10:00,
2013-08-12 19:25:00,76.1,73.0,29.95,West,269,0.0,7.0,90,0.00,,,0.13,weatherlink.com 1.10,2013-08-12 23:25:00,
2013-08-12 19:40:00,76.2,73.0,29.96,WNW,282,3.0,7.0,90,0.00,,,0.13,weatherlink.com 1.10,2013-08-12 23:40:00,
2013-08-12 19:55:00,75.7,73.0,29.96,West,279,0.0,5.0,90,0.00,,,0.13,weatherlink.com 1.10,2013-08-12 23:55:00,
2013-08-12 20:10:00,76.0,73.0,29.96,WNW,286,1.0,6.0,90,0.00,,,0.13,weatherlink.com 1.10,2013-08-13 00:10:00,
2013-08-12 20:25:00,76.3,73.0,29.97,West,276,2.0,6.0,90,0.00,,,0.13,weatherlink.com 1.10,2013-08-13 00:25:00,
2013-08-12 20:40:00,75.8,73.0,29.98,WNW,285,0.0,6.0,90,0.00,,,0.13,weatherlink.com 1.10,2013-08-13 00:40:00,
2013-08-12 20:55:00,75.5,73.0,29.96,WNW,284,0.0,0.0,90,0.00,,,0.13,weatherlink.com 1.10,2013-08-13 00:55:00,
2013-08-12 21:10:00,75.2,72.0,29.96,West,270,0.0,2.0,90,0.00,,,0.13,weatherlink.com 1.10,2013-08-13 01:10:00,
2013-08-12 21:25:00,75.0,72.0,29.97,West,273,1.0,5.0,90,0.00,,,0.13,weatherlink.com 1.10,2013-08-13 01:25:00,
2013-08-12 21:40:00,75.1,72.0,29.97,West,273,0.0,4.0,90,0.00,,,0.13,weatherlink.com 1.10,2013-08-13 01:40:00,
2013-08-12 21:55:00,75.0,72.0,29.98,West,273,0.0,3.0,90,0.00,,,0.13,weatherlink.com 1.10,2013-08-13 01:55:00,
2013-08-12 22:10:00,74.7,72.0,29.97,West,273,0.0,0.0,90,0.00,,,0.13,weatherlink.com 1.10,2013-08-13 02:10:00,
2013-08-12 22:25:00,74.5,72.0,29.97,West,273,0.0,1.0,90,0.00,,,0.13,weatherlink.com 1.10,2013-08-13 02:25:00,
2013-08-12 22:40:00,74.4,71.0,29.96,West,273,1.0,2.0,90,0.00,,,0.13,weatherlink.com 1.10,2013-08-13 02:40:00,
2013-08-12 22:55:00,74.6,72.0,29.96,West,273,0.0,1.0,90,0.00,,,0.13,weatherlink.com 1.10,2013-08-13 02:55:00,
2013-08-12 23:10:00,74.8,72.0,29.96,West,273,0.0,1.0,91,0.00,,,0.13,weatherlink.com 1.10,2013-08-13 03:10:00,
2013-08-12 23:25:00,75.3,73.0,29.96,West,273,0.0,0.0,91,0.00,,,0.13,weatherlink.com 1.10,2013-08-13 03:25:00,
2013-08-12 23:40:00,75.4,73.0,29.96,West,273,0.0,0.0,91,0.00,,,0.13,weatherlink.com 1.10,2013-08-13 03:40:00,
2013-08-12 23:55:00,75.4,73.0,29.96,West,273,0.0,1.0,91,0.00,,,0.13,weatherlink.com 1.10,2013-08-13 03:55:00,